[[{"header":{"parameterUnit":"m.s-1","parameterCategory":1,"la1":30.2991,"la2":30.254,"lo1":-89.0895,"lo2":-89.0444,"dy":0.0017,"dx":0.0017,"nx":28,"ny":28,"refTime":"2025-03-14T09:00:00:Z","depth":0,"parameterNumber":2,"parameterNumberName":"U-component_of_WINDS"},"data":[0,0,0,0,0,0,0,0,0,0,0,0,0,0,0,0,0,0,0,0,0,0,0,0,0,0,0,0,0,0,0,0,0,0,0,0,0,0,0,0,0,0,0,0,0,0,0,0,0,0,0,0,0,0,0,0,0,0,-3.3118,-3.3119,0,-3.3174,-3.3175,-3.3175,-3.3169,-3.3168,-3.3167,-3.3166,-3.3222,-3.3224,-3.3227,0,0,0,0,0,0,0,0,0,0,0,0,0,-3.3004,-3.3007,-3.3118,-3.3119,-3.3119,-3.3174,-3.3175,-3.3175,-3.3169,-3.3168,-3.3167,-3.3166,-3.3221,-3.3224,-3.3227,0,0,0,0,0,0,0,0,0,0,0,0,0,-3.3056,-3.3007,-3.3118,-3.3123,-3.3124,-3.3174,-3.3175,-3.3176,-3.3169,-3.3168,-3.3167,-3.3165,-3.322,-3.3224,-3.3227,-3.3276,0,0,-3.3238,-3.3239,0,0,0,0,0,0,0,0,-3.3053,-3.3061,-3.3121,-3.3122,-3.3124,-3.3163,-3.3155,-3.3209,-3.317,-3.3152,-3.3166,-3.3165,-3.3203,-3.3208,-3.3222,-3.3278,-3.3281,-3.3238,-3.324,-3.3242,-3.3243,0,0,0,0,0,0,0,-3.305,-3.3058,-3.314,-3.3122,-3.3124,-3.3122,-3.3128,-3.3165,-3.3184,-3.3153,-3.3153,-3.316,-3.3204,-3.3218,-3.3223,-3.3281,-3.3238,-3.3241,-3.3243,-3.3245,-3.338,-3.3381,0,0,0,0,0,0,-3.3045,-3.3055,-3.3138,-3.3142,-3.3085,-3.3125,-3.3132,-3.3152,-3.3184,-3.3188,-3.3161,-3.3159,-3.3213,-3.3219,-3.3225,-3.3282,-3.3242,-3.3245,-3.3247,-3.3378,-3.338,-3.3382,0,0,0,0,0,0,-3.3043,-3.3053,-3.3136,-3.3098,-3.3109,-3.3128,-3.3151,-3.3154,-3.3168,-3.319,-3.3193,-3.3172,-3.3212,-3.322,-3.3263,-3.3284,-3.3247,-3.325,-3.3376,-3.3379,-3.3381,-3.3399,0,0,0,0,0,0,-3.304,-3.3052,-3.307,-3.3099,-3.3111,-3.3173,-3.3152,-3.3156,-3.3174,-3.3173,-3.3201,-3.3205,-3.3212,-3.3258,-3.3266,-3.3288,-3.3253,-3.3374,-3.3377,-3.338,-3.3396,-3.3401,-3.3406,0,0,0,0,0,-3.3036,-3.3073,-3.3071,-3.3082,-3.3135,-3.3175,-3.3181,-3.3189,-3.3176,-3.3195,-3.3209,-3.3204,-3.3281,-3.3262,-3.3272,-3.3295,-3.3373,-3.3377,-3.338,-3.3394,-3.34,-3.3405,0,0,0,0,0,0,-3.3046,-3.3077,-3.3075,-3.3123,-3.3147,-3.3173,-3.3197,-3.3196,-3.3223,-3.322,-3.3228,-3.3235,-3.3278,-3.3291,-3.327,-3.3343,-3.3325,-3.3331,-3.3333,-3.3339,-3.3343,-3.3338,-3.3255,0,0,0,0,0,-3.3054,-3.3085,-3.311,-3.315,-3.3161,-3.3177,-3.3195,-3.3199,-3.3223,-3.3233,-3.325,-3.3273,-3.3303,-3.3322,-3.335,-3.3399,-3.3404,-3.342,-3.3425,-3.3428,-3.3432,-3.3458,-3.3465,-3.3393,-3.3393,-3.3393,0,0,-3.3071,-3.3092,-3.311,-3.3152,-3.3171,-3.3201,-3.3186,-3.3219,-3.3241,-3.3238,-3.3279,-3.3293,-3.3319,-3.3365,-3.3386,-3.3377,-3.3454,-3.3433,-3.3435,-3.3437,-3.3462,-3.3469,-3.3475,-3.3395,-3.3395,-3.3394,0,0,-3.3117,-3.3136,-3.3171,-3.319,-3.3218,-3.3228,-3.3237,-3.3264,-3.3273,-3.3315,-3.3313,-3.334,-3.3391,-3.341,-3.3426,-3.348,-3.3476,-3.3489,-3.3512,-3.3537,-3.3543,-3.3548,-3.3566,-3.3572,-3.3493,-3.3493,-3.3493,0,-3.3133,-3.318,-3.3189,-3.3222,-3.324,-3.324,-3.3275,-3.3293,-3.3329,-3.3341,-3.3331,-3.3395,-3.3413,-3.3462,-3.3476,-3.3489,-3.3498,-3.3484,-3.3542,-3.3547,-3.3552,-3.3569,-3.3575,-3.3494,-3.3494,-3.3494,-3.3494,0,-3.3198,-3.3231,-3.3255,-3.329,-3.3312,-3.3346,-3.336,-3.338,-3.3383,-3.3394,-3.3437,-3.3459,-3.3491,-3.3504,-3.3507,-3.3554,-3.3547,-3.354,-3.3521,-3.356,-3.3575,-3.3582,-3.3496,-3.3496,-3.3495,-3.3495,0,0,-3.3251,-3.3291,-3.33,-3.3315,-3.3347,-3.3371,-3.3406,-3.3438,-3.3455,-3.348,-3.3508,-3.3552,-3.3545,-3.3563,-3.3568,-3.3591,-3.363,-3.358,-3.3581,-3.3587,-3.3682,-3.3686,-3.3694,-3.3629,-3.363,-3.3631,-3.3679,0,-3.3298,-3.3358,-3.3368,-3.3421,-3.345,-3.345,-3.348,-3.3502,-3.3514,-3.354,-3.3554,-3.3584,-3.3573,-3.3584,-3.3606,-3.3621,-3.3649,-3.3618,-3.3654,-3.3655,-3.3645,-3.3702,-3.3707,-3.3751,-3.3686,-3.3687,-3.3688,0,-3.3361,-3.3388,-3.3444,-3.3471,-3.3484,-3.351,-3.354,-3.3566,-3.3591,-3.3598,-3.3619,-3.3622,-3.3657,-3.3639,-3.3686,-3.3665,-3.368,-3.369,-3.3692,-3.3694,-3.3672,-3.3704,-3.3766,-3.3772,-3.3698,-3.3697,-3.3696,0,-3.3392,-3.3442,-3.3482,-3.3495,-3.3529,-3.3547,-3.3562,-3.3586,-3.3604,-3.3631,-3.3643,-3.3673,-3.3689,-3.3713,-3.3723,-3.3709,-3.377,-3.3753,-3.3776,-3.3775,-3.3787,-3.3785,-3.385,-3.38,-3.38,-3.38,-3.38,0,-3.3443,-3.3476,-3.3496,-3.352,-3.3558,-3.3568,-3.3605,-3.3619,-3.3641,-3.3667,-3.367,-3.3695,-3.3709,-3.3735,-3.3744,-3.3782,-3.3789,-3.3795,-3.3797,-3.3794,-3.3793,-3.3803,-3.3799,-3.3802,-3.3801,-3.3801,-3.3801,0,-3.3483,-3.3497,-3.354,-3.3568,-3.3576,-3.3602,-3.3626,-3.3649,-3.3662,-3.3695,-3.3704,-3.3723,-3.3755,-3.3768,-3.3807,-3.3813,-3.3856,-3.3856,-3.3847,-3.3847,-3.3869,-3.3866,-3.394,-3.395,-3.3895,-3.3896,-3.3896,0,-3.3513,-3.3539,-3.357,-3.3588,-3.3603,-3.3632,-3.3651,-3.3663,-3.3683,-3.3714,-3.3733,-3.3765,-3.3791,-3.3842,-3.3859,-3.3889,-3.3888,-3.3913,-3.3893,-3.3889,-3.3887,-3.3884,-3.3886,-3.3915,-3.3916,-3.3916,-3.3917,0,-3.3566,-3.3571,-3.3599,-3.3629,-3.3652,-3.3676,-3.37,-3.3714,-3.373,-3.3752,-3.3785,-3.3805,-3.3845,-3.3876,-3.3907,-3.3922,-3.3921,-3.3923,-3.393,-3.3926,-3.3919,-3.3922,-3.3855,-3.3921,-3.392,-3.392,-3.392,-3.392,-3.3601,-3.3623,-3.3648,-3.3679,-3.3698,-3.372,-3.3743,-3.3758,-3.3786,-3.3819,-3.3825,-3.3859,-3.3884,-3.3925,-3.3941,-3.3968,-3.3962,-3.3972,-3.3974,-3.3976,-3.3977,-3.3917,-3.3974,-3.3974,-3.3974,-3.3974,-3.3974,0,-3.3652,-3.3668,-3.3696,-3.3729,-3.3753,-3.3752,-3.3778,-3.3798,-3.3828,-3.3851,-3.3877,-3.3914,-3.3944,-3.3964,-3.3995,-3.4012,-3.4013,-3.402,-3.4018,-3.4021,-3.3981,-3.3972,-3.4019,-3.4019,-3.4019,-3.4019,-3.4019,-3.4019,-3.3681,-3.3719,-3.3728,-3.3775,-3.3791,-3.3825,-3.384,-3.386,-3.3878,-3.392,-3.3945,-3.3958,-3.398,-3.4012,-3.404,-3.4045,-3.4055,-3.4062,-3.4067,-3.4029,-3.4024,-3.4019,-3.401,-3.4065,-3.4065,-3.4104,-3.4104,-3.4105]},{"header":{"parameterUnit":"m.s-1","parameterCategory":1,"la1":30.2991,"la2":30.254,"lo1":-89.0895,"lo2":-89.0444,"dy":0.0017,"dx":0.0017,"nx":28,"ny":28,"refTime":"2025-03-14T09:00:00:Z","depth":0,"parameterNumber":3,"parameterNumberName":"V-component_of_WINDS"},"data":[0,0,0,0,0,0,0,0,0,0,0,0,0,0,0,0,0,0,0,0,0,0,0,0,0,0,0,0,0,0,0,0,0,0,0,0,0,0,0,0,0,0,0,0,0,0,0,0,0,0,0,0,0,0,0,0,0,0,5.1417,5.1418,0,5.153,5.1531,5.1533,5.1562,5.1562,5.1561,5.156,5.1674,5.1677,5.1681,0,0,0,0,0,0,0,0,0,0,0,0,0,5.1227,5.123,5.1416,5.1418,5.1419,5.153,5.1531,5.1533,5.1562,5.1562,5.1561,5.156,5.1673,5.1677,5.1681,0,0,0,0,0,0,0,0,0,0,0,0,0,5.1321,5.1231,5.1416,5.1447,5.1451,5.153,5.1532,5.1533,5.1563,5.1561,5.156,5.156,5.1671,5.1677,5.1682,5.1737,0,0,5.1699,5.1701,0,0,0,0,0,0,0,0,5.1316,5.1328,5.1441,5.1445,5.145,5.1531,5.1506,5.1601,5.1563,5.152,5.156,5.1559,5.1627,5.1636,5.166,5.1742,5.1747,5.1699,5.1703,5.1705,5.1707,0,0,0,0,0,0,0,5.1309,5.1324,5.1461,5.1443,5.1448,5.1456,5.1469,5.1524,5.1578,5.1524,5.1526,5.1539,5.1629,5.1654,5.1662,5.1749,5.1699,5.1704,5.1707,5.171,5.1888,5.1889,0,0,0,0,0,0,5.1297,5.1318,5.1458,5.1465,5.1379,5.1461,5.1474,5.1506,5.1577,5.1587,5.154,5.154,5.1645,5.1656,5.1667,5.174,5.1705,5.171,5.1713,5.1887,5.1888,5.189,0,0,0,0,0,0,5.1293,5.131,5.1453,5.1392,5.1411,5.1465,5.15,5.1509,5.1534,5.159,5.1599,5.1556,5.1645,5.1659,5.1721,5.1744,5.1713,5.1718,5.1885,5.1887,5.1889,5.1883,0,0,0,0,0,0,5.1288,5.1308,5.1328,5.1392,5.1414,5.1505,5.1502,5.1512,5.1544,5.1545,5.1607,5.1616,5.1645,5.1712,5.1726,5.1751,5.1722,5.1883,5.1886,5.1888,5.1881,5.1885,5.1887,0,0,0,0,0,5.1281,5.132,5.1329,5.1346,5.1441,5.1506,5.1518,5.1551,5.1545,5.1567,5.1604,5.1614,5.1739,5.1718,5.1734,5.1761,5.1882,5.1885,5.1888,5.188,5.1884,5.1887,0,0,0,0,0,0,5.1255,5.1329,5.134,5.1401,5.1447,5.1511,5.1539,5.1554,5.1602,5.1601,5.1639,5.1653,5.1713,5.1743,5.1719,5.1821,5.1811,5.1817,5.1799,5.1803,5.1806,5.1798,5.1726,0,0,0,0,0,5.1256,5.1303,5.1365,5.1413,5.1436,5.1484,5.1513,5.1535,5.1584,5.1604,5.1645,5.1692,5.1742,5.1774,5.1823,5.1886,5.1902,5.1912,5.1915,5.1918,5.1923,5.1964,5.1971,5.19,5.19,5.19,0,0,5.1259,5.1306,5.1332,5.1409,5.1448,5.1497,5.15,5.1549,5.1587,5.1611,5.1673,5.1705,5.1761,5.1825,5.1855,5.1851,5.1947,5.1922,5.1923,5.1928,5.1968,5.1975,5.198,5.1903,5.1902,5.1902,0,0,5.1291,5.1329,5.1376,5.1416,5.1476,5.1508,5.152,5.1583,5.1606,5.1669,5.169,5.1735,5.1819,5.186,5.1891,5.1945,5.1958,5.196,5.1976,5.2015,5.2021,5.2026,5.2048,5.2056,5.1965,5.1965,5.1965,0,5.1287,5.1361,5.1398,5.1449,5.1484,5.1511,5.1561,5.1597,5.1669,5.1693,5.1688,5.1799,5.1838,5.1914,5.1928,5.1952,5.1968,5.1953,5.2017,5.2022,5.2028,5.205,5.2058,5.1965,5.1965,5.1965,5.1965,0,5.1356,5.1407,5.1438,5.151,5.1549,5.1598,5.1644,5.1679,5.1699,5.1733,5.18,5.1848,5.191,5.193,5.1948,5.2011,5.2007,5.2009,5.2,5.2034,5.2056,5.2064,5.1965,5.1965,5.1965,5.1965,0,0,5.1369,5.1466,5.1477,5.1513,5.1584,5.1625,5.1677,5.174,5.1771,5.1821,5.1868,5.1942,5.1947,5.1982,5.2006,5.2041,5.2086,5.2039,5.2041,5.2049,5.2163,5.2162,5.2171,5.2095,5.2096,5.2098,5.2159,0,5.1411,5.1508,5.1545,5.1624,5.1675,5.1705,5.1751,5.1801,5.1835,5.1883,5.1921,5.1974,5.1974,5.1997,5.2032,5.2072,5.2109,5.2068,5.2141,5.2143,5.2128,5.2182,5.218,5.2235,5.2167,5.2169,5.217,0,5.1472,5.1527,5.1611,5.1682,5.1705,5.1746,5.181,5.1855,5.1913,5.1936,5.198,5.2003,5.2062,5.205,5.2133,5.2105,5.2137,5.2162,5.2165,5.2174,5.2159,5.2195,5.2253,5.2262,5.2183,5.2182,5.2181,0,5.1478,5.1572,5.1637,5.1666,5.1748,5.1778,5.1814,5.1871,5.1909,5.1964,5.199,5.2051,5.2084,5.2132,5.2173,5.2159,5.2254,5.2243,5.2276,5.2276,5.2295,5.2293,5.2362,5.2312,5.2312,5.2312,5.2312,0,5.1521,5.1572,5.1642,5.1681,5.1741,5.1785,5.1844,5.1881,5.1934,5.1983,5.2011,5.2057,5.2107,5.2159,5.2191,5.2258,5.2272,5.2294,5.2302,5.2292,5.229,5.2315,5.2313,5.2314,5.2314,5.2313,5.2313,0,5.1536,5.1584,5.1658,5.1732,5.1753,5.1794,5.1858,5.1899,5.1937,5.1999,5.2016,5.2075,5.2139,5.2185,5.2266,5.2288,5.2361,5.2367,5.2342,5.2346,5.2378,5.2375,5.2466,5.2482,5.2419,5.242,5.242,0,5.1561,5.1603,5.1684,5.172,5.1757,5.1813,5.1854,5.19,5.1941,5.2015,5.2048,5.2114,5.217,5.2272,5.2322,5.2386,5.2396,5.2423,5.2405,5.2396,5.24,5.2398,5.2404,5.2426,5.2426,5.2427,5.2427,0,5.1602,5.1626,5.1682,5.175,5.1798,5.1852,5.1907,5.1935,5.1992,5.2037,5.2105,5.2148,5.2235,5.2302,5.2372,5.241,5.2429,5.2433,5.2444,5.2435,5.242,5.2433,5.2352,5.243,5.243,5.243,5.2429,5.2429,5.1625,5.1665,5.173,5.1795,5.1842,5.1895,5.1939,5.1985,5.2042,5.2118,5.2142,5.2213,5.2276,5.2373,5.2413,5.247,5.2468,5.2484,5.2488,5.2492,5.2494,5.2411,5.2482,5.2482,5.2482,5.2482,5.2482,0,5.1669,5.1714,5.1773,5.1852,5.1904,5.1921,5.1984,5.2027,5.209,5.2147,5.2204,5.2285,5.2352,5.241,5.248,5.2515,5.2526,5.2532,5.253,5.254,5.2489,5.2474,5.2522,5.2522,5.2522,5.2522,5.2522,5.2522,5.1698,5.1769,5.1802,5.1898,5.1943,5.2015,5.2051,5.2101,5.2148,5.2238,5.2295,5.2333,5.2393,5.2468,5.2532,5.2547,5.2573,5.2578,5.2595,5.2547,5.2542,5.2538,5.2524,5.2582,5.2582,5.2642,5.2642,5.2643]}]]